This is the latest recevied weather packets stored in our database for station/object PU5FJO-13. If no packets are shown the sender has not sent any weather packets the latest 10 day(s).
| Time | Temp. | Humidity | Pressure | Rain* | Wind** | Luminosity | Snow |
|---|---|---|---|---|---|---|---|
| 1777137363 | 25° C | 71% | 1010.2 hPa | - | - | - | - |
| 1777136763 | 25.56° C | 69% | 1010.3 hPa | - | - | - | - |
| 1777136163 | 25.56° C | 68% | 1010.4 hPa | - | - | - | - |
| 1777135563 | 25.56° C | 67% | 1010.6 hPa | - | - | - | - |
| 1777134963 | 25.56° C | 68% | 1010.7 hPa | - | - | - | - |
| 1777134363 | 25.56° C | 67% | 1010.6 hPa | - | - | - | - |
| 1777133763 | 26.11° C | 65% | 1010.8 hPa | - | - | - | - |
| 1777133163 | 26.11° C | 65% | 1010.9 hPa | - | - | - | - |
| 1777132563 | 26.11° C | 64% | 1011.1 hPa | - | - | - | - |
| 1777131963 | 26.67° C | 61% | 1011.1 hPa | - | - | - | - |
| 1777131363 | 26.67° C | 57% | 1011.2 hPa | - | - | - | - |
| 1777130763 | 27.22° C | 56% | 1011.5 hPa | - | - | - | - |
| 1777130163 | 27.22° C | 56% | 1011.7 hPa | - | - | - | - |
| 1777129563 | 27.78° C | 56% | 1011.8 hPa | - | - | - | - |
| 1777128963 | 27.22° C | 56% | 1011.8 hPa | - | - | - | - |
| 1777128363 | 26.67° C | 59% | 1011.8 hPa | - | - | - | - |
| 1777127763 | 26.11° C | 60% | 1012.1 hPa | - | - | - | - |
| 1777127163 | 25.56° C | 62% | 1012.2 hPa | - | - | - | - |
| 1777126563 | 25.56° C | 62% | 1012.3 hPa | - | - | - | - |
| 1777125963 | 25.56° C | 61% | 1012.1 hPa | - | - | - | - |
| 1777125363 | 25.56° C | 62% | 1012.1 hPa | - | - | - | - |
| 1777124763 | 25° C | 62% | 1012.3 hPa | - | - | - | - |
| 1777124163 | 25.56° C | 64% | 1012.5 hPa | - | - | - | - |
| 1777123563 | 25° C | 69% | 1012.5 hPa | - | - | - | - |
| 1777122963 | 24.44° C | 72% | 1012.5 hPa | - | - | - | - |
* Rain since midnight (hover to see other rain measurements)
** Current wind speed in m/s (hover to see current wind gust speed)